Location: Kinloch
(38.7406°N, 90.3254°W)
Time: 15:36:41
(UTC+00:00)

IGS 5A - Pass Details

Date: 13 February 2026
Orbit: 551 x 554 km, 97.4° (Epoch: 8 January)

Event Time Altitude Azimuth Distance (km) Brightness Sun altitude
Rises 12:13:41 0° 3° (N) 2,736 6.8 -8.6°
Reaches altitude 10° 12:15:54 10° 356° (N) 1,837 5.8 -8.2°
Maximum altitude 12:19:37 40° 287° (WNW) 828 3.8 -7.5°
Drops below altitude 10° 12:23:19 10° 217° (SW) 1,824 5.7 -6.8°
Sets 12:25:31 0° 210° (SSW) 2,714 6.7 -6.3°
